Year,Month,Day,Hour,Minute,Value (Times are PST for barometer in hPa)
2011,11,22,00,00,995.29
2011,11,22,00,01,995.20
2011,11,22,00,02,995.19
2011,11,22,00,03,995.16
2011,11,22,00,04,995.16
2011,11,22,00,05,995.09
2011,11,22,00,06,995.09
2011,11,22,00,07,995.11
2011,11,22,00,08,994.99
2011,11,22,00,09,994.99
2011,11,22,00,10,995.02
2011,11,22,00,11,995.06
2011,11,22,00,12,994.99
2011,11,22,00,13,994.96
2011,11,22,00,14,994.92
2011,11,22,00,15,994.92
2011,11,22,00,16,994.85
2011,11,22,00,17,994.79
2011,11,22,00,18,994.79
2011,11,22,00,19,994.79
2011,11,22,00,20,994.75
2011,11,22,00,21,994.68
2011,11,22,00,22,994.72
2011,11,22,00,23,994.72
2011,11,22,00,24,994.62
2011,11,22,00,25,994.55
2011,11,22,00,26,994.55
2011,11,22,00,27,994.52
2011,11,22,00,28,994.48
2011,11,22,00,29,994.48
2011,11,22,00,30,994.48
2011,11,22,00,31,994.48
2011,11,22,00,32,994.48
2011,11,22,00,33,994.45
2011,11,22,00,34,994.38
2011,11,22,00,35,994.45
2011,11,22,00,36,994.38
2011,11,22,00,37,994.38
2011,11,22,00,38,994.31
2011,11,22,00,39,994.28
2011,11,22,00,40,994.24
2011,11,22,00,41,994.21
2011,11,22,00,42,994.11
2011,11,22,00,43,994.14
2011,11,22,00,44,994.14
2011,11,22,00,45,994.11
2011,11,22,00,46,994.07
2011,11,22,00,47,994.07
2011,11,22,00,48,994.11
2011,11,22,00,49,994.07
2011,11,22,00,50,994.04
2011,11,22,00,51,994.01
2011,11,22,00,52,993.94
2011,11,22,00,53,993.97
2011,11,22,00,54,993.97
2011,11,22,00,55,993.91
2011,11,22,00,56,993.94
2011,11,22,00,57,993.91
2011,11,22,00,58,993.91
2011,11,22,00,59,993.84
2011,11,22,01,00,993.74
2011,11,22,01,01,993.77
2011,11,22,01,02,993.74
2011,11,22,01,03,993.74
2011,11,22,01,04,993.74
2011,11,22,01,05,993.80
2011,11,22,01,06,993.80
2011,11,22,01,07,993.77
2011,11,22,01,08,993.63
2011,11,22,01,09,993.60
2011,11,22,01,10,993.63
2011,11,22,01,11,993.60
2011,11,22,01,12,993.57
2011,11,22,01,13,993.60
2011,11,22,01,14,993.60
2011,11,22,01,15,993.60
2011,11,22,01,16,993.53
2011,11,22,01,17,993.59
2011,11,22,01,18,993.47
2011,11,22,01,19,993.47
2011,11,22,01,20,993.47
2011,11,22,01,21,993.36
2011,11,22,01,22,993.30
2011,11,22,01,23,993.30
2011,11,22,01,24,993.43
2011,11,22,01,25,993.43
2011,11,22,01,26,993.40
2011,11,22,01,27,993.33
2011,11,22,01,28,993.36
2011,11,22,01,29,993.33
2011,11,22,01,30,993.26
2011,11,22,01,31,993.26
2011,11,22,01,32,993.19
2011,11,22,01,33,993.26
2011,11,22,01,34,993.25
2011,11,22,01,35,993.09
2011,11,22,01,36,993.09
2011,11,22,01,37,993.06
2011,11,22,01,38,993.06
2011,11,22,01,39,993.06
2011,11,22,01,40,993.06
2011,11,22,01,41,993.03
2011,11,22,01,42,992.99
2011,11,22,01,43,992.92
2011,11,22,01,44,992.89
2011,11,22,01,45,992.89
2011,11,22,01,46,992.89
2011,11,22,01,47,992.89
2011,11,22,01,48,992.86
2011,11,22,01,49,992.92
2011,11,22,01,50,992.86
2011,11,22,01,51,992.82
2011,11,22,01,52,992.79
2011,11,22,01,53,992.79
2011,11,22,01,54,992.75
2011,11,22,01,55,992.72
2011,11,22,01,56,992.69
2011,11,22,01,57,992.65
2011,11,22,01,58,992.62
2011,11,22,01,59,992.65
2011,11,22,02,00,992.69
2011,11,22,02,01,992.65
2011,11,22,02,02,992.58
2011,11,22,02,03,992.52
2011,11,22,02,04,992.52
2011,11,22,02,05,992.38
2011,11,22,02,06,992.31
2011,11,22,02,07,992.28
2011,11,22,02,08,992.25
2011,11,22,02,09,992.28
2011,11,22,02,10,992.18
2011,11,22,02,11,992.18
2011,11,22,02,12,992.14
2011,11,22,02,13,992.14
2011,11,22,02,14,992.14
2011,11,22,02,15,992.04
2011,11,22,02,16,992.01
2011,11,22,02,17,991.98
2011,11,22,02,18,991.98
2011,11,22,02,19,992.08
2011,11,22,02,20,992.08
2011,11,22,02,21,991.98
2011,11,22,02,22,991.91
2011,11,22,02,23,991.91
2011,11,22,02,24,991.94
2011,11,22,02,25,991.98
2011,11,22,02,26,991.94
2011,11,22,02,27,991.87
2011,11,22,02,28,991.91
2011,11,22,02,29,991.77
2011,11,22,02,30,991.77
2011,11,22,02,31,991.84
2011,11,22,02,32,991.87
2011,11,22,02,33,991.77
2011,11,22,02,34,991.81
2011,11,22,02,35,991.77
2011,11,22,02,36,991.77
2011,11,22,02,37,991.77
2011,11,22,02,38,991.81
2011,11,22,02,39,991.74
2011,11,22,02,40,991.74
2011,11,22,02,41,991.67
2011,11,22,02,42,991.67
2011,11,22,02,43,991.74
2011,11,22,02,44,991.77
2011,11,22,02,45,991.70
2011,11,22,02,46,991.60
2011,11,22,02,47,991.70
2011,11,22,02,48,991.60
2011,11,22,02,49,991.64
2011,11,22,02,50,991.64
2011,11,22,02,51,991.74
2011,11,22,02,52,991.77
2011,11,22,02,53,991.81
2011,11,22,02,54,991.74
2011,11,22,02,55,991.74
2011,11,22,02,56,991.77
2011,11,22,02,57,991.81
2011,11,22,02,58,991.77
2011,11,22,02,59,991.84
2011,11,22,03,00,991.81
2011,11,22,03,01,991.81
2011,11,22,03,02,991.74
2011,11,22,03,03,991.74
2011,11,22,03,04,991.81
2011,11,22,03,05,991.64
2011,11,22,03,06,991.43
2011,11,22,03,07,991.47
2011,11,22,03,08,991.37
2011,11,22,03,09,991.52
2011,11,22,03,10,991.43
2011,11,22,03,11,991.37
2011,11,22,03,12,991.53
2011,11,22,03,13,991.43
2011,11,22,03,14,991.37
2011,11,22,03,15,991.47
2011,11,22,03,16,991.47
2011,11,22,03,17,991.37
2011,11,22,03,18,991.47
2011,11,22,03,19,991.50
2011,11,22,03,20,991.43
2011,11,22,03,21,991.37
2011,11,22,03,22,991.40
2011,11,22,03,23,991.23
2011,11,22,03,24,991.37
2011,11,22,03,25,991.60
2011,11,22,03,26,991.84
2011,11,22,03,27,991.94
2011,11,22,03,28,992.01
2011,11,22,03,29,992.01
2011,11,22,03,30,992.69
2011,11,22,03,31,993.06
2011,11,22,03,32,993.23
2011,11,22,03,33,993.09
2011,11,22,03,34,992.89
2011,11,22,03,35,992.86
2011,11,22,03,36,992.86
2011,11,22,03,37,992.86
2011,11,22,03,38,992.82
2011,11,22,03,39,992.82
2011,11,22,03,40,992.82
2011,11,22,03,41,992.79
2011,11,22,03,42,992.75
2011,11,22,03,43,992.96
2011,11,22,03,44,992.89
2011,11,22,03,45,993.13
2011,11,22,03,46,992.96
2011,11,22,03,47,993.09
2011,11,22,03,48,993.09
2011,11,22,03,49,993.13
2011,11,22,03,50,993.03
2011,11,22,03,51,993.09
2011,11,22,03,52,993.16
2011,11,22,03,53,993.09
2011,11,22,03,54,993.23
2011,11,22,03,55,993.33
2011,11,22,03,56,993.33
2011,11,22,03,57,993.47
2011,11,22,03,58,993.67
2011,11,22,03,59,993.60
2011,11,22,04,00,993.60
2011,11,22,04,01,993.73
2011,11,22,04,02,993.70
2011,11,22,04,03,993.84
2011,11,22,04,04,993.91
2011,11,22,04,05,994.11
2011,11,22,04,06,994.01
2011,11,22,04,07,994.11
2011,11,22,04,08,994.31
2011,11,22,04,09,994.28
2011,11,22,04,10,994.38
2011,11,22,04,11,994.24
2011,11,22,04,12,994.38
2011,11,22,04,13,994.41
2011,11,22,04,14,994.38
2011,11,22,04,15,994.41
2011,11,22,04,16,994.48
2011,11,22,04,17,994.65
2011,11,22,04,18,994.62
2011,11,22,04,19,994.68
2011,11,22,04,20,994.72
2011,11,22,04,21,994.72
2011,11,22,04,22,994.65
2011,11,22,04,23,994.72
2011,11,22,04,24,994.85
2011,11,22,04,25,994.89
2011,11,22,04,26,994.96
2011,11,22,04,27,995.08
2011,11,22,04,28,995.09
2011,11,22,04,29,995.09
2011,11,22,04,30,995.06
2011,11,22,04,31,995.06
2011,11,22,04,32,995.26
2011,11,22,04,33,995.19
2011,11,22,04,34,995.16
2011,11,22,04,35,995.29
2011,11,22,04,36,995.26
2011,11,22,04,37,995.33
2011,11,22,04,38,995.36
2011,11,22,04,39,995.40
2011,11,22,04,40,995.43
2011,11,22,04,41,995.50
2011,11,22,04,42,995.46
2011,11,22,04,43,995.46
2011,11,22,04,44,995.46
2011,11,22,04,45,995.53
2011,11,22,04,46,995.50
2011,11,22,04,47,995.62
2011,11,22,04,48,995.67
2011,11,22,04,49,995.73
2011,11,22,04,50,995.80
2011,11,22,04,51,995.87
2011,11,22,04,52,995.87
2011,11,22,04,53,995.90
2011,11,22,04,54,995.94
2011,11,22,04,55,996.01
2011,11,22,04,56,995.97
2011,11,22,04,57,996.04
2011,11,22,04,58,996.01
2011,11,22,04,59,995.88
2011,11,22,05,00,995.78
2011,11,22,05,01,995.86
2011,11,22,05,02,995.97
2011,11,22,05,03,996.07
2011,11,22,05,04,996.11
2011,11,22,05,05,996.04
2011,11,22,05,06,996.04
2011,11,22,05,07,996.07
2011,11,22,05,08,996.04
2011,11,22,05,09,996.07
2011,11,22,05,10,996.04
2011,11,22,05,11,996.01
2011,11,22,05,12,995.97
2011,11,22,05,13,995.94
2011,11,22,05,14,995.97
2011,11,22,05,15,996.04
2011,11,22,05,16,996.07
2011,11,22,05,17,996.11
2011,11,22,05,18,996.07
2011,11,22,05,19,996.01
2011,11,22,05,20,995.97
2011,11,22,05,21,995.97
2011,11,22,05,22,996.04
2011,11,22,05,23,996.17
2011,11,22,05,24,996.24
2011,11,22,05,25,996.34
2011,11,22,05,26,996.41
2011,11,22,05,27,996.48
2011,11,22,05,28,996.55
2011,11,22,05,29,996.61
2011,11,22,05,30,996.72
2011,11,22,05,31,996.82
2011,11,22,05,32,996.78
2011,11,22,05,33,996.82
2011,11,22,05,34,996.85
2011,11,22,05,35,996.89
2011,11,22,05,36,996.82
2011,11,22,05,37,996.75
2011,11,22,05,38,996.75
2011,11,22,05,39,996.68
2011,11,22,05,40,996.72
2011,11,22,05,41,996.72
2011,11,22,05,42,996.75
2011,11,22,05,43,996.82
2011,11,22,05,44,996.78
2011,11,22,05,45,996.78
2011,11,22,05,46,996.72
2011,11,22,05,47,996.75
2011,11,22,05,48,996.68
2011,11,22,05,49,996.68
2011,11,22,05,50,996.65
2011,11,22,05,51,996.58
2011,11,22,05,52,996.61
2011,11,22,05,53,996.75
2011,11,22,05,54,996.82
2011,11,22,05,55,996.92
2011,11,22,05,56,996.99
2011,11,22,05,57,996.99
2011,11,22,05,58,997.02
2011,11,22,05,59,997.12
2011,11,22,06,00,997.19
2011,11,22,06,01,997.28
2011,11,22,06,02,997.39
2011,11,22,06,03,997.39
2011,11,22,06,04,997.46
2011,11,22,06,05,997.46
2011,11,22,06,06,997.46
2011,11,22,06,07,997.50
2011,11,22,06,08,997.50
2011,11,22,06,09,997.39
2011,11,22,06,10,997.39
2011,11,22,06,11,997.39
2011,11,22,06,12,997.33
2011,11,22,06,13,997.33
2011,11,22,06,14,997.36
2011,11,22,06,15,997.29
2011,11,22,06,16,997.36
2011,11,22,06,17,997.46
2011,11,22,06,18,997.50
2011,11,22,06,19,997.53
2011,11,22,06,20,997.63
2011,11,22,06,21,997.70
2011,11,22,06,22,997.73
2011,11,22,06,23,997.70
2011,11,22,06,24,997.66
2011,11,22,06,25,997.56
2011,11,22,06,26,997.53
2011,11,22,06,27,997.50
2011,11,22,06,28,997.46
2011,11,22,06,29,997.53
2011,11,22,06,30,997.66
2011,11,22,06,31,997.79
2011,11,22,06,32,997.94
2011,11,22,06,33,998.04
2011,11,22,06,34,998.14
2011,11,22,06,35,998.31
2011,11,22,06,36,998.41
2011,11,22,06,37,998.41
2011,11,22,06,38,998.44
2011,11,22,06,39,998.54
2011,11,22,06,40,998.58
2011,11,22,06,41,998.51
2011,11,22,06,42,998.51
2011,11,22,06,43,998.51
2011,11,22,06,44,998.44
2011,11,22,06,45,998.51
2011,11,22,06,46,998.51
2011,11,22,06,47,998.51
2011,11,22,06,48,998.51
2011,11,22,06,49,998.48
2011,11,22,06,50,998.39
2011,11,22,06,51,998.38
2011,11,22,06,52,998.27
2011,11,22,06,53,998.27
2011,11,22,06,54,998.34
2011,11,22,06,55,998.38
2011,11,22,06,56,998.38
2011,11,22,06,57,998.44
2011,11,22,06,58,998.51
2011,11,22,06,59,998.51
2011,11,22,07,00,998.44
2011,11,22,07,01,998.44
2011,11,22,07,02,998.51
2011,11,22,07,03,998.64
2011,11,22,07,04,998.68
2011,11,22,07,05,998.75
2011,11,22,07,06,998.71
2011,11,22,07,07,998.68
2011,11,22,07,08,998.68
2011,11,22,07,09,998.71
2011,11,22,07,10,998.94
2011,11,22,07,11,999.09
2011,11,22,07,12,999.19
2011,11,22,07,13,999.19
2011,11,22,07,14,999.15
2011,11,22,07,15,999.02
2011,11,22,07,16,998.92
2011,11,22,07,17,998.95
2011,11,22,07,18,998.95
2011,11,22,07,19,998.88
2011,11,22,07,20,998.75
2011,11,22,07,21,998.75
2011,11,22,07,22,998.78
2011,11,22,07,23,998.78
2011,11,22,07,24,998.88
2011,11,22,07,25,998.92
2011,11,22,07,26,998.92
2011,11,22,07,27,998.95
2011,11,22,07,28,998.99
2011,11,22,07,29,999.02
2011,11,22,07,30,999.05
2011,11,22,07,31,999.15
2011,11,22,07,32,999.26
2011,11,22,07,33,999.29
2011,11,22,07,34,999.32
2011,11,22,07,35,999.43
2011,11,22,07,36,999.39
2011,11,22,07,37,999.19
2011,11,22,07,38,999.12
2011,11,22,07,39,999.15
2011,11,22,07,40,999.15
2011,11,22,07,41,999.19
2011,11,22,07,42,999.26
2011,11,22,07,43,999.15
2011,11,22,07,44,999.22
2011,11,22,07,45,999.29
2011,11,22,07,46,999.32
2011,11,22,07,47,999.39
2011,11,22,07,48,999.48
2011,11,22,07,49,999.53
2011,11,22,07,50,999.63
2011,11,22,07,51,999.70
2011,11,22,07,52,999.76
2011,11,22,07,53,999.87
2011,11,22,07,54,999.87
2011,11,22,07,55,999.93
2011,11,22,07,56,999.97
2011,11,22,07,57,1000.03
2011,11,22,07,58,1000.10
2011,11,22,07,59,1000.20
2011,11,22,08,00,1000.24
2011,11,22,08,01,1000.33
2011,11,22,08,02,1000.37
2011,11,22,08,03,1000.41
2011,11,22,08,04,1000.48
2011,11,22,08,05,1000.58
2011,11,22,08,06,1000.51
2011,11,22,08,07,1000.44
2011,11,22,08,08,1000.58
2011,11,22,08,09,1000.64
2011,11,22,08,10,1000.61
2011,11,22,08,11,1000.61
2011,11,22,08,12,1000.64
2011,11,22,08,13,1000.78
2011,11,22,08,14,1000.85
2011,11,22,08,15,1000.88
2011,11,22,08,16,1000.97
2011,11,22,08,17,1001.02
2011,11,22,08,18,1001.08
2011,11,22,08,19,1001.08
2011,11,22,08,20,1001.12
2011,11,22,08,21,1001.19
2011,11,22,08,22,1001.15
2011,11,22,08,23,1001.19
2011,11,22,08,24,1001.22
2011,11,22,08,25,1001.29
2011,11,22,08,26,1001.25
2011,11,22,08,27,1001.25
2011,11,22,08,28,1001.29
2011,11,22,08,29,1001.36
2011,11,22,08,30,1001.39
2011,11,22,08,31,1001.42
2011,11,22,08,32,1001.39
2011,11,22,08,33,1001.42
2011,11,22,08,34,1001.46
2011,11,22,08,35,1001.49
2011,11,22,08,36,1001.59
2011,11,22,08,37,1001.59
2011,11,22,08,38,1001.59
2011,11,22,08,39,1001.66
2011,11,22,08,40,1001.66
2011,11,22,08,41,1001.59
2011,11,22,08,42,1001.63
2011,11,22,08,43,1001.66
2011,11,22,08,44,1001.69
2011,11,22,08,45,1001.63
2011,11,22,08,46,1001.63
2011,11,22,08,47,1001.59
2011,11,22,08,48,1001.63
2011,11,22,08,49,1001.59
2011,11,22,08,50,1001.56
2011,11,22,08,51,1001.59
2011,11,22,08,52,1001.63
2011,11,22,08,53,1001.63
2011,11,22,08,54,1001.69
2011,11,22,08,55,1001.69
2011,11,22,08,56,1001.73
2011,11,22,08,57,1001.76
2011,11,22,08,58,1001.80
2011,11,22,08,59,1001.83
2011,11,22,09,00,1001.86
2011,11,22,09,01,1001.90
2011,11,22,09,02,1001.83
2011,11,22,09,03,1001.90
2011,11,22,09,04,1001.93
2011,11,22,09,05,1002.00
2011,11,22,09,06,1002.00
2011,11,22,09,07,1002.03
2011,11,22,09,08,1002.00
2011,11,22,09,09,1002.07
2011,11,22,09,10,1002.07
2011,11,22,09,11,1002.07
2011,11,22,09,12,1002.10
2011,11,22,09,13,1002.10
2011,11,22,09,14,1002.10
2011,11,22,09,15,1002.13
2011,11,22,09,16,1002.13
2011,11,22,09,17,1002.13
2011,11,22,09,18,1002.13
2011,11,22,09,19,1002.10
2011,11,22,09,20,1002.13
2011,11,22,09,21,1002.10
2011,11,22,09,22,1002.10
2011,11,22,09,23,1002.27
2011,11,22,09,24,1002.27
2011,11,22,09,25,1002.30
2011,11,22,09,26,1002.34
2011,11,22,09,27,1002.34
2011,11,22,09,28,1002.37
2011,11,22,09,29,1002.37
2011,11,22,09,30,1002.34
2011,11,22,09,31,1002.44
2011,11,22,09,32,1002.47
2011,11,22,09,33,1002.54
2011,11,22,09,34,1002.57
2011,11,22,09,35,1002.57
2011,11,22,09,36,1002.61
2011,11,22,09,37,1002.61
2011,11,22,09,38,1002.61
2011,11,22,09,39,1002.64
2011,11,22,09,40,1002.64
2011,11,22,09,41,1002.64
2011,11,22,09,42,1002.64
2011,11,22,09,43,1002.68
2011,11,22,09,44,1002.68
2011,11,22,09,45,1002.68
2011,11,22,09,46,1002.68
2011,11,22,09,47,1002.71
2011,11,22,09,48,1002.74
2011,11,22,09,49,1002.78
2011,11,22,09,50,1002.78
2011,11,22,09,51,1002.81
2011,11,22,09,52,1002.81
2011,11,22,09,53,1002.81
2011,11,22,09,54,1002.85
2011,11,22,09,55,1002.85
2011,11,22,09,56,1002.85
2011,11,22,09,57,1002.88
2011,11,22,09,58,1002.91
2011,11,22,09,59,1002.88
2011,11,22,10,00,1002.91
2011,11,22,10,01,1002.88
2011,11,22,10,02,1002.91
2011,11,22,10,03,1002.95
2011,11,22,10,04,1002.98
2011,11,22,10,05,1002.98
2011,11,22,10,06,1003.01
2011,11,22,10,07,1003.01
2011,11,22,10,08,1003.08
2011,11,22,10,09,1003.05
2011,11,22,10,10,1002.98
2011,11,22,10,11,1002.98
2011,11,22,10,12,1002.95
2011,11,22,10,13,1002.95
2011,11,22,10,14,1002.95
2011,11,22,10,15,1002.98
2011,11,22,10,16,1003.01
2011,11,22,10,17,1003.01
2011,11,22,10,18,1003.05
2011,11,22,10,19,1003.08
2011,11,22,10,20,1003.05
2011,11,22,10,21,1003.05
2011,11,22,10,22,1003.05
2011,11,22,10,23,1003.08
2011,11,22,10,24,1003.12
2011,11,22,10,25,1003.18
2011,11,22,10,26,1003.15
2011,11,22,10,27,1003.18
2011,11,22,10,28,1003.15
2011,11,22,10,29,1003.18
2011,11,22,10,30,1003.22
2011,11,22,10,31,1003.29
2011,11,22,10,32,1003.25
2011,11,22,10,33,1003.29
2011,11,22,10,34,1003.35
2011,11,22,10,35,1003.32
2011,11,22,10,36,1003.32
2011,11,22,10,37,1003.25
2011,11,22,10,38,1003.22
2011,11,22,10,39,1003.22
2011,11,22,10,40,1003.22
2011,11,22,10,41,1003.22
2011,11,22,10,42,1003.29
2011,11,22,10,43,1003.29
2011,11,22,10,44,1003.32
2011,11,22,10,45,1003.29
2011,11,22,10,46,1003.32
2011,11,22,10,47,1003.29
2011,11,22,10,48,1003.32
2011,11,22,10,49,1003.35
2011,11,22,10,50,1003.39
2011,11,22,10,51,1003.42
2011,11,22,10,52,1003.49
2011,11,22,10,53,1003.52
2011,11,22,10,54,1003.49
2011,11,22,10,55,1003.52
2011,11,22,10,56,1003.52
2011,11,22,10,57,1003.56
2011,11,22,10,58,1003.62
2011,11,22,10,59,1003.56
2011,11,22,11,00,1003.59
2011,11,22,11,01,1003.59
2011,11,22,11,02,1003.59
2011,11,22,11,03,1003.59
2011,11,22,11,04,1003.59
2011,11,22,11,05,1003.52
2011,11,22,11,06,1003.52
2011,11,22,11,07,1003.46
2011,11,22,11,08,1003.52
2011,11,22,11,09,1003.49
2011,11,22,11,10,1003.46
2011,11,22,11,11,1003.49
2011,11,22,11,12,1003.49
2011,11,22,11,13,1003.56
2011,11,22,11,14,1003.56
2011,11,22,11,15,1003.56
2011,11,22,11,16,1003.56
2011,11,22,11,17,1003.56
2011,11,22,11,18,1003.56
2011,11,22,11,19,1003.59
2011,11,22,11,20,1003.66
2011,11,22,11,21,1003.73
2011,11,22,11,22,1003.73
2011,11,22,11,23,1003.69
2011,11,22,11,24,1003.59
2011,11,22,11,25,1003.59
2011,11,22,11,26,1003.59
2011,11,22,11,27,1003.59
2011,11,22,11,28,1003.62
2011,11,22,11,29,1003.66
2011,11,22,11,30,1003.66
2011,11,22,11,31,1003.69
2011,11,22,11,32,1003.76
2011,11,22,11,33,1003.69
2011,11,22,11,34,1003.66
2011,11,22,11,35,1003.69
2011,11,22,11,36,1003.66
2011,11,22,11,37,1003.59
2011,11,22,11,38,1003.68
2011,11,22,11,39,1003.66
2011,11,22,11,40,1003.62
2011,11,22,11,41,1003.66
2011,11,22,11,42,1003.69
2011,11,22,11,43,1003.85
2011,11,22,11,44,1003.86
2011,11,22,11,45,1003.90
2011,11,22,11,46,1004.12
2011,11,22,11,47,1004.22
2011,11,22,11,48,1004.20
2011,11,22,11,49,1004.17
2011,11,22,11,50,1004.10
2011,11,22,11,51,1004.03
2011,11,22,11,52,1004.00
2011,11,22,11,53,1004.00
2011,11,22,11,54,1004.03
2011,11,22,11,55,1004.03
2011,11,22,11,56,1004.03
2011,11,22,11,57,1004.03
2011,11,22,11,58,1004.00
2011,11,22,11,59,1004.00
2011,11,22,12,00,1004.00
2011,11,22,12,01,1003.96
2011,11,22,12,02,1003.96
2011,11,22,12,03,1004.00
2011,11,22,12,04,1003.93
2011,11,22,12,05,1004.00
2011,11,22,12,06,1004.00
2011,11,22,12,07,1004.03
2011,11,22,12,08,1004.06
2011,11,22,12,09,1004.10
2011,11,22,12,10,1004.03
2011,11,22,12,11,1004.00
2011,11,22,12,12,1003.93
2011,11,22,12,13,1003.90
2011,11,22,12,14,1003.83
2011,11,22,12,15,1003.86
2011,11,22,12,16,1003.86
2011,11,22,12,17,1003.86
2011,11,22,12,18,1003.93
2011,11,22,12,19,1003.86
2011,11,22,12,20,1003.86
2011,11,22,12,21,1003.86
2011,11,22,12,22,1003.83
2011,11,22,12,23,1003.83
2011,11,22,12,24,1003.83
2011,11,22,12,25,1003.79
2011,11,22,12,26,1003.79
2011,11,22,12,27,1003.76
2011,11,22,12,28,1003.73
2011,11,22,12,29,1003.66
2011,11,22,12,30,1003.69
2011,11,22,12,31,1003.69
2011,11,22,12,32,1003.69
2011,11,22,12,33,1003.66
2011,11,22,12,34,1003.66
2011,11,22,12,35,1003.66
2011,11,22,12,36,1003.66
2011,11,22,12,37,1003.59
2011,11,22,12,38,1003.56
2011,11,22,12,39,1003.52
2011,11,22,12,40,1003.52
2011,11,22,12,41,1003.49
2011,11,22,12,42,1003.56
2011,11,22,12,43,1003.52
2011,11,22,12,44,1003.59
2011,11,22,12,45,1003.56
2011,11,22,12,46,1003.59
2011,11,22,12,47,1003.66
2011,11,22,12,48,1003.73
2011,11,22,12,49,1003.76
2011,11,22,12,50,1003.76
2011,11,22,12,51,1003.73
2011,11,22,12,52,1003.73
2011,11,22,12,53,1003.76
2011,11,22,12,54,1003.79
2011,11,22,12,55,1003.79
2011,11,22,12,56,1003.79
2011,11,22,12,57,1003.79
2011,11,22,12,58,1003.83
2011,11,22,12,59,1003.76
2011,11,22,13,00,1003.69
2011,11,22,13,01,1003.66
2011,11,22,13,02,1003.66
2011,11,22,13,03,1003.62
2011,11,22,13,04,1003.59
2011,11,22,13,05,1003.56
2011,11,22,13,06,1003.59
2011,11,22,13,07,1003.62
2011,11,22,13,08,1003.62
2011,11,22,13,09,1003.59
2011,11,22,13,10,1003.59
2011,11,22,13,11,1003.56
2011,11,22,13,12,1003.52
2011,11,22,13,13,1003.52
2011,11,22,13,14,1003.52
2011,11,22,13,15,1003.52
2011,11,22,13,16,1003.52
2011,11,22,13,17,1003.52
2011,11,22,13,18,1003.52
2011,11,22,13,19,1003.52
2011,11,22,13,20,1003.49
2011,11,22,13,21,1003.46
2011,11,22,13,22,1003.46
2011,11,22,13,23,1003.46
2011,11,22,13,24,1003.39
2011,11,22,13,25,1003.35
2011,11,22,13,26,1003.35
2011,11,22,13,27,1003.35
2011,11,22,13,28,1003.39
2011,11,22,13,29,1003.42
2011,11,22,13,30,1003.46
2011,11,22,13,31,1003.42
2011,11,22,13,32,1003.39
2011,11,22,13,33,1003.39
2011,11,22,13,34,1003.39
2011,11,22,13,35,1003.42
2011,11,22,13,36,1003.42
2011,11,22,13,37,1003.39
2011,11,22,13,38,1003.35
2011,11,22,13,39,1003.39
2011,11,22,13,40,1003.35
2011,11,22,13,41,1003.35
2011,11,22,13,42,1003.39
2011,11,22,13,43,1003.42
2011,11,22,13,44,1003.46
2011,11,22,13,45,1003.49
2011,11,22,13,46,1003.46
2011,11,22,13,47,1003.39
2011,11,22,13,48,1003.35
2011,11,22,13,49,1003.32
2011,11,22,13,50,1003.32
2011,11,22,13,51,1003.25
2011,11,22,13,52,1003.29
2011,11,22,13,53,1003.32
2011,11,22,13,54,1003.29
2011,11,22,13,55,1003.32
2011,11,22,13,56,1003.32
2011,11,22,13,57,1003.32
2011,11,22,13,58,1003.35
2011,11,22,13,59,1003.32
2011,11,22,14,00,1003.25
2011,11,22,14,01,1003.25
2011,11,22,14,02,1003.18
2011,11,22,14,03,1003.22
2011,11,22,14,04,1003.25
2011,11,22,14,05,1003.22
2011,11,22,14,06,1003.22
2011,11,22,14,07,1003.18
2011,11,22,14,08,1003.22
2011,11,22,14,09,1003.25
2011,11,22,14,10,1003.25
2011,11,22,14,11,1003.22
2011,11,22,14,12,1003.22
2011,11,22,14,13,1003.29
2011,11,22,14,14,1003.25
2011,11,22,14,15,1003.22
2011,11,22,14,16,1003.22
2011,11,22,14,17,1003.18
2011,11,22,14,18,1003.18
2011,11,22,14,19,1003.18
2011,11,22,14,20,1003.18
2011,11,22,14,21,1003.12
2011,11,22,14,22,1003.12
2011,11,22,14,23,1003.12
2011,11,22,14,24,1003.05
2011,11,22,14,25,1003.01
2011,11,22,14,26,1002.95
2011,11,22,14,27,1002.91
2011,11,22,14,28,1002.95
2011,11,22,14,29,1002.98
2011,11,22,14,30,1003.01
2011,11,22,14,31,1003.01
2011,11,22,14,32,1002.98
2011,11,22,14,33,1002.91
2011,11,22,14,34,1002.95
2011,11,22,14,35,1002.91
2011,11,22,14,36,1002.91
2011,11,22,14,37,1002.88
2011,11,22,14,38,1002.88
2011,11,22,14,39,1002.88
2011,11,22,14,40,1002.95
2011,11,22,14,41,1002.95
2011,11,22,14,42,1002.95
2011,11,22,14,43,1002.91
2011,11,22,14,44,1002.88
2011,11,22,14,45,1002.91
2011,11,22,14,46,1002.98
2011,11,22,14,47,1002.95
2011,11,22,14,48,1002.95
2011,11,22,14,49,1002.91
2011,11,22,14,50,1002.88
2011,11,22,14,51,1002.88
2011,11,22,14,52,1002.91
2011,11,22,14,53,1002.88
2011,11,22,14,54,1002.88
2011,11,22,14,55,1002.85
2011,11,22,14,56,1002.81
2011,11,22,14,57,1002.81
2011,11,22,14,58,1002.88
2011,11,22,14,59,1002.88
2011,11,22,15,00,1002.85
2011,11,22,15,01,1002.85
2011,11,22,15,02,1002.85
2011,11,22,15,03,1002.85
2011,11,22,15,04,1002.88
2011,11,22,15,05,1002.88
2011,11,22,15,06,1002.91
2011,11,22,15,07,1002.91
2011,11,22,15,08,1002.95
2011,11,22,15,09,1002.95
2011,11,22,15,10,1002.95
2011,11,22,15,11,1002.91
2011,11,22,15,12,1002.88
2011,11,22,15,13,1002.91
2011,11,22,15,14,1002.91
2011,11,22,15,15,1002.91
2011,11,22,15,16,1002.95
2011,11,22,15,17,1002.91
2011,11,22,15,18,1002.91
2011,11,22,15,19,1002.88
2011,11,22,15,20,1002.85
2011,11,22,15,21,1002.78
2011,11,22,15,22,1002.74
2011,11,22,15,23,1002.74
2011,11,22,15,24,1002.81
2011,11,22,15,25,1002.85
2011,11,22,15,26,1002.85
2011,11,22,15,27,1002.85
2011,11,22,15,28,1002.85
2011,11,22,15,29,1002.88
2011,11,22,15,30,1002.85
2011,11,22,15,31,1002.81
2011,11,22,15,32,1002.78
2011,11,22,15,33,1002.78
2011,11,22,15,34,1002.74
2011,11,22,15,35,1002.74
2011,11,22,15,36,1002.78
2011,11,22,15,37,1002.81
2011,11,22,15,38,1002.78
2011,11,22,15,39,1002.85
2011,11,22,15,40,1002.81
2011,11,22,15,41,1002.81
2011,11,22,15,42,1002.81
2011,11,22,15,43,1002.85
2011,11,22,15,44,1002.81
2011,11,22,15,45,1002.81
2011,11,22,15,46,1002.78
2011,11,22,15,47,1002.85
2011,11,22,15,48,1002.78
2011,11,22,15,49,1002.81
2011,11,22,15,50,1002.81
2011,11,22,15,51,1002.85
2011,11,22,15,52,1002.88
2011,11,22,15,53,1002.88
2011,11,22,15,54,1002.85
2011,11,22,15,55,1002.85
2011,11,22,15,56,1002.85
2011,11,22,15,57,1002.78
2011,11,22,15,58,1002.81
2011,11,22,15,59,1002.88
2011,11,22,16,00,1002.85
2011,11,22,16,01,1002.81
2011,11,22,16,02,1002.78
2011,11,22,16,03,1002.78
2011,11,22,16,04,1002.78
2011,11,22,16,05,1002.74
2011,11,22,16,06,1002.71
2011,11,22,16,07,1002.71
2011,11,22,16,08,1002.74
2011,11,22,16,09,1002.71
2011,11,22,16,10,1002.71
2011,11,22,16,11,1002.71
2011,11,22,16,12,1002.71
2011,11,22,16,13,1002.68
2011,11,22,16,14,1002.64
2011,11,22,16,15,1002.68